| time (UTC) | temp F | wind direction | speed MPH | gust MPH | rain 1hr in | rain 24hr in | rain mn in | humidity % | barometer mb |
| 20260504141223 | 63 | 35 | 2.0 | 6.0 | 0.00 | 0.00 | 0.00 | 35 | 1009.4 |
| 20260504140719 | 63 | 121 | 4.0 | 5.0 | 0.00 | 0.00 | 0.00 | 35 | 1009.4 |
| 20260504140214 | 63 | 314 | 3.0 | 10.0 | 0.00 | 0.00 | 0.00 | 34 | 1009.4 |
| 20260504130643 | 57 | 90 | 0.0 | 4.0 | 0.00 | 0.00 | 0.00 | 41 | 1010.1 |
| 20260504130140 | 57 | 346 | 2.0 | 6.0 | 0.00 | 0.00 | 0.00 | 42 | 1010.2 |
| 20260504120104 | 51 | 350 | 2.0 | 3.0 | 0.00 | 0.00 | 0.00 | 57 | 1010.4 |
| 20260504110531 | 39 | 9 | 3.0 | 3.0 | 0.00 | 0.00 | 0.00 | 84 | 1010.4 |
| 20260504100453 | 36 | 359 | 1.0 | 2.0 | 0.00 | 0.00 | 0.00 | 88 | 1010.4 |
| 20260504081846 | 37 | 342 | 2.0 | 3.0 | 0.00 | 0.00 | 0.00 | 83 | 1009.8 |
| 20260504081343 | 37 | 356 | 2.0 | 2.0 | 0.00 | 0.00 | 0.00 | 83 | 1009.7 |
| 20260504080839 | 38 | 358 | 2.0 | 2.0 | 0.00 | 0.00 | 0.00 | 81 | 1009.7 |
| 20260504080336 | 38 | 339 | 2.0 | 2.0 | 0.00 | 0.00 | 0.00 | 81 | 1009.6 |
| 20260504070303 | 39 | 341 | 1.0 | 3.0 | 0.00 | 0.00 | 0.00 | 80 | 1009.7 |
| 20260504060224 | 39 | 345 | 2.0 | 2.0 | 0.00 | 0.00 | 0.00 | 79 | 1009.9 |
| 20260504050652 | 37 | 342 | 2.0 | 2.0 | 0.00 | 0.00 | 0.00 | 83 | 1009.8 |
| 20260504050149 | 37 | 341 | 2.0 | 3.0 | 0.00 | 0.00 | 0.00 | 83 | 1009.9 |
| 20260504045646 | 37 | 331 | 2.0 | 2.0 | 0.00 | 0.00 | 0.00 | 83 | 1009.8 |
| 20260504045146 | 37 | 347 | 2.0 | 3.0 | 0.00 | 0.00 | 0.00 | 83 | 1009.9 |
| 20260504044644 | 37 | 348 | 3.0 | 3.0 | 0.00 | 0.00 | 0.00 | 82 | 1009.9 |
| 20260504044140 | 37 | 344 | 2.0 | 2.0 | 0.00 | 0.00 | 0.00 | 82 | 1010.0 |
| 20260504043638 | 37 | 340 | 3.0 | 3.0 | 0.00 | 0.00 | 0.00 | 82 | 1010.1 |
| 20260504043135 | 37 | 328 | 2.0 | 2.0 | 0.00 | 0.00 | 0.00 | 81 | 1009.9 |
| 20260504042632 | 37 | 348 | 2.0 | 3.0 | 0.00 | 0.00 | 0.00 | 81 | 1010.0 |
| 20260504042129 | 37 | 343 | 2.0 | 2.0 | 0.00 | 0.00 | 0.00 | 81 | 1010.0 |
| 20260504041624 | 37 | 352 | 2.0 | 2.0 | 0.00 | 0.00 | 0.00 | 81 | 1010.0 |
| 20260504041121 | 37 | 338 | 2.0 | 3.0 | 0.00 | 0.00 | 0.00 | 80 | 1009.8 |
| 20260504040618 | 38 | 345 | 2.0 | 3.0 | 0.00 | 0.00 | 0.00 | 80 | 1009.8 |
| 20260504040115 | 38 | 341 | 2.0 | 3.0 | 0.00 | 0.00 | 0.00 | 79 | 1009.9 |
| 20260504035612 | 38 | 345 | 2.0 | 2.0 | 0.00 | 0.00 | 0.00 | 79 | 1009.9 |
| 20260504035108 | 38 | 342 | 2.0 | 2.0 | 0.00 | 0.00 | 0.00 | 79 | 1009.9 |
| 20260504034606 | 38 | 4 | 2.0 | 2.0 | 0.00 | 0.00 | 0.00 | 77 | 1009.9 |
| 20260504034103 | 38 | 354 | 2.0 | 3.0 | 0.00 | 0.00 | 0.00 | 77 | 1009.6 |
| 20260504033601 | 39 | 0 | 2.0 | 2.0 | 0.00 | 0.00 | 0.00 | 76 | 1009.8 |
| 20260504033057 | 39 | 1 | 2.0 | 3.0 | 0.00 | 0.00 | 0.00 | 76 | 1009.8 |
| 20260504032554 | 39 | 356 | 3.0 | 3.0 | 0.00 | 0.00 | 0.00 | 75 | 1009.7 |
| 20260504032051 | 39 | 343 | 2.0 | 3.0 | 0.00 | 0.00 | 0.00 | 75 | 1009.6 |
| 20260504031548 | 39 | 343 | 2.0 | 3.0 | 0.00 | 0.00 | 0.00 | 74 | 1009.6 |
| 20260504031044 | 39 | 352 | 2.0 | 3.0 | 0.00 | 0.00 | 0.00 | 73 | 1009.6 |
| 20260504030542 | 39 | 345 | 2.0 | 3.0 | 0.00 | 0.00 | 0.00 | 72 | 1009.6 |
| 20260504030038 | 40 | 342 | 2.0 | 3.0 | 0.00 | 0.00 | 0.00 | 72 | 1009.5 |
| 20260504025535 | 40 | 345 | 2.0 | 3.0 | 0.00 | 0.00 | 0.00 | 72 | 1009.6 |
| 20260504025032 | 40 | 343 | 2.0 | 2.0 | 0.00 | 0.00 | 0.00 | 72 | 1009.5 |
| 20260504024529 | 40 | 340 | 3.0 | 3.0 | 0.00 | 0.00 | 0.00 | 71 | 1009.7 |
| 20260504024026 | 40 | 337 | 2.0 | 3.0 | 0.00 | 0.00 | 0.00 | 71 | 1009.6 |
| 20260504023522 | 41 | 338 | 2.0 | 2.0 | 0.00 | 0.00 | 0.00 | 70 | 1009.6 |
| 20260504023018 | 41 | 334 | 2.0 | 2.0 | 0.00 | 0.00 | 0.00 | 69 | 1009.6 |
| 20260504022514 | 41 | 348 | 2.0 | 2.0 | 0.00 | 0.00 | 0.00 | 67 | 1009.5 |
| 20260504022011 | 41 | 347 | 2.0 | 2.0 | 0.00 | 0.00 | 0.00 | 66 | 1009.4 |
| 20260504021509 | 42 | 350 | 2.0 | 3.0 | 0.00 | 0.00 | 0.00 | 65 | 1009.5 |
| 20260504021005 | 42 | 340 | 2.0 | 2.0 | 0.00 | 0.00 | 0.00 | 64 | 1009.4 |
| 20260504020502 | 42 | 354 | 2.0 | 3.0 | 0.00 | 0.00 | 0.00 | 63 | 1009.6 |
| 20260504015959 | 42 | 352 | 2.0 | 2.0 | 0.00 | 0.00 | 0.00 | 62 | 1009.6 |
| 20260504015455 | 43 | 349 | 3.0 | 4.0 | 0.00 | 0.00 | 0.00 | 62 | 1009.4 |
| 20260504014951 | 43 | 343 | 2.0 | 3.0 | 0.00 | 0.00 | 0.00 | 61 | 1009.3 |
| 20260504014447 | 43 | 346 | 2.0 | 3.0 | 0.00 | 0.00 | 0.00 | 60 | 1009.4 |
| 20260504013944 | 44 | 342 | 3.0 | 3.0 | 0.00 | 0.00 | 0.00 | 60 | 1009.2 |
| 20260504013443 | 44 | 342 | 2.0 | 2.0 | 0.00 | 0.00 | 0.00 | 59 | 1009.2 |
| 20260504012938 | 44 | 351 | 2.0 | 2.0 | 0.00 | 0.00 | 0.00 | 57 | 1009.1 |
| 20260504012437 | 45 | 352 | 2.0 | 3.0 | 0.00 | 0.00 | 0.00 | 56 | 1009.0 |
| 20260504011934 | 45 | 337 | 2.0 | 3.0 | 0.00 | 0.00 | 0.00 | 53 | 1009.2 |
| 20260504011430 | 45 | 356 | 2.0 | 3.0 | 0.00 | 0.00 | 0.00 | 52 | 1009.1 |
| 20260504010926 | 45 | 343 | 2.0 | 3.0 | 0.00 | 0.00 | 0.00 | 52 | 1008.9 |
| 20260504010422 | 45 | 350 | 2.0 | 3.0 | 0.00 | 0.00 | 0.00 | 54 | 1008.8 |
| 20260504005919 | 45 | 347 | 2.0 | 3.0 | 0.00 | 0.00 | 0.00 | 55 | 1008.9 |
| 20260504005415 | 45 | 341 | 3.0 | 3.0 | 0.00 | 0.00 | 0.00 | 53 | 1008.8 |
| 20260504004913 | 45 | 346 | 3.0 | 3.0 | 0.00 | 0.00 | 0.00 | 56 | 1008.6 |
| 20260504004411 | 46 | 346 | 2.0 | 2.0 | 0.00 | 0.00 | 0.00 | 51 | 1008.5 |
| 20260504003907 | 46 | 343 | 3.0 | 3.0 | 0.00 | 0.00 | 0.00 | 50 | 1008.5 |
| 20260504003404 | 46 | 348 | 3.0 | 3.0 | 0.00 | 0.00 | 0.00 | 49 | 1008.3 |
| 20260504002900 | 46 | 344 | 2.0 | 3.0 | 0.00 | 0.00 | 0.00 | 48 | 1008.3 |
| 20260504002357 | 47 | 341 | 3.0 | 3.0 | 0.00 | 0.00 | 0.00 | 47 | 1008.2 |
| 20260504001855 | 48 | 335 | 2.0 | 2.0 | 0.00 | 0.00 | 0.00 | 50 | 1008.1 |
| 20260504001352 | 48 | 337 | 2.0 | 2.0 | 0.00 | 0.00 | 0.00 | 48 | 1008.0 |
| 20260504000848 | 48 | 338 | 2.0 | 2.0 | 0.00 | 0.00 | 0.00 | 49 | 1007.9 |
| 20260504000346 | 49 | 346 | 2.0 | 2.0 | 0.00 | 0.00 | 0.00 | 47 | 1008.0 |
| 20260503235843 | 49 | 332 | 2.0 | 2.0 | 0.00 | 0.00 | 0.00 | 44 | 1007.9 |
| 20260503235341 | 50 | 339 | 2.0 | 2.0 | 0.00 | 0.00 | 0.00 | 38 | 1007.7 |
| 20260503234838 | 50 | 338 | 2.0 | 3.0 | 0.00 | 0.00 | 0.00 | 40 | 1007.6 |
| 20260503234336 | 51 | 354 | 3.0 | 3.0 | 0.00 | 0.00 | 0.00 | 38 | 1007.8 |
| 20260503233833 | 51 | 353 | 2.0 | 3.0 | 0.00 | 0.00 | 0.00 | 39 | 1007.6 |
| 20260503233329 | 51 | 333 | 2.0 | 4.0 | 0.00 | 0.00 | 0.00 | 38 | 1007.6 |
| 20260503232826 | 51 | 346 | 2.0 | 4.0 | 0.00 | 0.00 | 0.00 | 38 | 1007.6 |
| 20260503232323 | 51 | 299 | 4.0 | 4.0 | 0.00 | 0.00 | 0.00 | 40 | 1007.4 |
| 20260503231821 | 52 | 344 | 2.0 | 2.0 | 0.00 | 0.00 | 0.00 | 38 | 1007.6 |
| 20260503231318 | 52 | 11 | 3.0 | 4.0 | 0.00 | 0.00 | 0.00 | 39 | 1007.4 |
| 20260503230814 | 52 | 322 | 2.0 | 3.0 | 0.00 | 0.00 | 0.00 | 37 | 1007.3 |
| 20260503230311 | 52 | 355 | 2.0 | 4.0 | 0.00 | 0.00 | 0.00 | 38 | 1007.5 |
| 20260503225809 | 52 | 2 | 1.0 | 3.0 | 0.00 | 0.00 | 0.00 | 37 | 1007.3 |
| 20260503225304 | 53 | 306 | 0.0 | 2.0 | 0.00 | 0.00 | 0.00 | 38 | 1007.2 |
| 20260503224801 | 53 | 329 | 2.0 | 2.0 | 0.00 | 0.00 | 0.00 | 37 | 1007.3 |
| 20260503224258 | 53 | 43 | 3.0 | 5.0 | 0.00 | 0.00 | 0.00 | 35 | 1007.4 |
| 20260503223755 | 53 | 357 | 3.0 | 3.0 | 0.00 | 0.00 | 0.00 | 35 | 1007.4 |
| 20260503223253 | 53 | 330 | 1.0 | 3.0 | 0.00 | 0.00 | 0.00 | 33 | 1007.4 |
| 20260503222749 | 53 | 35 | 2.0 | 5.0 | 0.00 | 0.00 | 0.00 | 34 | 1007.4 |
| 20260503222247 | 53 | 346 | 2.0 | 2.0 | 0.00 | 0.00 | 0.00 | 35 | 1007.4 |
| 20260503221745 | 53 | 23 | 3.0 | 3.0 | 0.00 | 0.00 | 0.00 | 36 | 1007.3 |
| 20260503221243 | 53 | 41 | 1.0 | 4.0 | 0.00 | 0.00 | 0.00 | 34 | 1007.3 |
| 20260503220739 | 53 | 355 | 2.0 | 3.0 | 0.00 | 0.00 | 0.00 | 34 | 1007.3 |
| 20260503220236 | 54 | 29 | 1.0 | 6.0 | 0.00 | 0.00 | 0.00 | 34 | 1007.4 |
| 20260503215733 | 53 | 341 | 5.0 | 6.0 | 0.00 | 0.00 | 0.00 | 33 | 1007.3 |
| 20260503215230 | 54 | 329 | 3.0 | 5.0 | 0.00 | 0.00 | 0.00 | 37 | 1007.4 |
| 20260503214728 | 54 | 39 | 2.0 | 11.0 | 0.00 | 0.00 | 0.00 | 32 | 1007.5 |
| 20260503214225 | 54 | 350 | 5.0 | 5.0 | 0.00 | 0.00 | 0.00 | 33 | 1007.4 |
| 20260503213723 | 54 | 3 | 4.0 | 6.0 | 0.00 | 0.00 | 0.00 | 33 | 1007.3 |
| 20260503213220 | 54 | 36 | 2.0 | 5.0 | 0.00 | 0.00 | 0.00 | 35 | 1007.5 |
| 20260503212716 | 54 | 212 | 2.0 | 6.0 | 0.00 | 0.00 | 0.00 | 34 | 1007.5 |
| 20260503212214 | 54 | 351 | 4.0 | 4.0 | 0.00 | 0.00 | 0.00 | 32 | 1007.3 |
| 20260503211712 | 54 | 39 | 1.0 | 6.0 | 0.00 | 0.00 | 0.00 | 34 | 1007.3 |
| 20260503211208 | 55 | 22 | 2.0 | 5.0 | 0.00 | 0.00 | 0.00 | 35 | 1007.3 |
| 20260503210703 | 55 | 332 | 4.0 | 8.0 | 0.00 | 0.00 | 0.00 | 33 | 1007.3 |
| 20260503210201 | 55 | 23 | 8.0 | 9.0 | 0.00 | 0.00 | 0.00 | 33 | 1007.3 |
| 20260503205655 | 55 | 352 | 2.0 | 6.0 | 0.00 | 0.00 | 0.00 | 35 | 1007.3 |
| 20260503205152 | 55 | 345 | 3.0 | 9.0 | 0.00 | 0.00 | 0.00 | 33 | 1007.2 |
| 20260503204649 | 55 | 61 | 2.0 | 4.0 | 0.00 | 0.00 | 0.00 | 32 | 1007.4 |
| 20260503204147 | 55 | 330 | 5.0 | 5.0 | 0.00 | 0.00 | 0.00 | 33 | 1007.3 |
| 20260503203643 | 55 | 1 | 6.0 | 7.0 | 0.00 | 0.00 | 0.00 | 32 | 1007.4 |
| 20260503203141 | 56 | 344 | 4.0 | 5.0 | 0.00 | 0.00 | 0.00 | 32 | 1007.4 |
| 20260503202638 | 56 | 305 | 4.0 | 8.0 | 0.00 | 0.00 | 0.00 | 32 | 1007.3 |
| 20260503202136 | 56 | 334 | 1.0 | 6.0 | 0.00 | 0.00 | 0.00 | 34 | 1007.5 |
| 20260503201634 | 56 | 95 | 6.0 | 8.0 | 0.00 | 0.00 | 0.00 | 31 | 1007.2 |
| 20260503201131 | 56 | 1 | 6.0 | 8.0 | 0.00 | 0.00 | 0.00 | 33 | 1007.5 |
| 20260503200627 | 55 | 51 | 3.0 | 6.0 | 0.00 | 0.00 | 0.00 | 38 | 1007.3 |
| 20260503200124 | 55 | 86 | 2.0 | 4.0 | 0.00 | 0.00 | 0.00 | 33 | 1007.6 |
| 20260503195621 | 56 | 358 | 4.0 | 11.0 | 0.00 | 0.00 | 0.00 | 30 | 1007.4 |
| 20260503195118 | 54 | 343 | 4.0 | 4.0 | 0.00 | 0.00 | 0.00 | 36 | 1007.2 |
| 20260503194615 | 54 | 352 | 1.0 | 5.0 | 0.00 | 0.00 | 0.00 | 33 | 1007.1 |
| 20260503194110 | 54 | 346 | 2.0 | 4.0 | 0.00 | 0.00 | 0.00 | 35 | 1007.5 |
| 20260503193607 | 53 | 340 | 3.0 | 6.0 | 0.00 | 0.00 | 0.00 | 33 | 1007.3 |
| 20260503193102 | 53 | 335 | 4.0 | 8.0 | 0.00 | 0.00 | 0.00 | 35 | 1007.4 |
| 20260503192558 | 53 | 0 | 4.0 | 6.0 | 0.00 | 0.00 | 0.00 | 36 | 1007.3 |
| 20260503192054 | 54 | 340 | 3.0 | 9.0 | 0.00 | 0.00 | 0.00 | 36 | 1007.2 |
| 20260503191551 | 55 | 20 | 2.0 | 6.0 | 0.00 | 0.00 | 0.00 | 37 | 1007.1 |
| 20260503191048 | 55 | 337 | 3.0 | 10.0 | 0.00 | 0.00 | 0.00 | 34 | 1007.3 |
| 20260503190545 | 56 | 355 | 3.0 | 7.0 | 0.00 | 0.00 | 0.00 | 31 | 1007.5 |
| 20260503190042 | 55 | 51 | 3.0 | 7.0 | 0.00 | 0.00 | 0.00 | 34 | 1007.3 |
| 20260503185538 | 55 | 40 | 5.0 | 9.0 | 0.00 | 0.00 | 0.00 | 35 | 1007.2 |
| 20260503185038 | 55 | 355 | 4.0 | 8.0 | 0.00 | 0.00 | 0.00 | 31 | 1007.3 |
| 20260503184534 | 56 | 306 | 3.0 | 10.0 | 0.00 | 0.00 | 0.00 | 32 | 1007.2 |
| 20260503184031 | 55 | 10 | 6.0 | 8.0 | 0.00 | 0.00 | 0.00 | 31 | 1007.5 |
| 20260503183528 | 56 | 11 | 4.0 | 9.0 | 0.00 | 0.00 | 0.00 | 32 | 1007.2 |
| 20260503183025 | 56 | 341 | 0.0 | 6.0 | 0.00 | 0.00 | 0.00 | 31 | 1007.5 |
| 20260503182523 | 56 | 66 | 2.0 | 6.0 | 0.00 | 0.00 | 0.00 | 32 | 1007.3 |
| 20260503182021 | 55 | 315 | 2.0 | 9.0 | 0.00 | 0.00 | 0.00 | 30 | 1007.5 |
| 20260503181518 | 56 | 22 | 3.0 | 10.0 | 0.00 | 0.00 | 0.00 | 31 | 1007.3 |
| 20260503181014 | 55 | 355 | 5.0 | 7.0 | 0.00 | 0.00 | 0.00 | 33 | 1007.3 |
| 20260503180512 | 55 | 338 | 6.0 | 9.0 | 0.00 | 0.00 | 0.00 | 36 | 1007.3 |
| 20260503180009 | 55 | 44 | 4.0 | 6.0 | 0.00 | 0.00 | 0.00 | 32 | 1007.2 |
| 20260503175506 | 56 | 356 | 2.0 | 11.0 | 0.00 | 0.00 | 0.00 | 35 | 1007.1 |
| 20260503175003 | 55 | 41 | 1.0 | 5.0 | 0.00 | 0.00 | 0.00 | 31 | 1007.2 |
| 20260503174500 | 54 | 71 | 0.0 | 6.0 | 0.00 | 0.00 | 0.00 | 38 | 1007.2 |
| 20260503173955 | 53 | 357 | 2.0 | 6.0 | 0.00 | 0.00 | 0.00 | 35 | 1007.3 |
| 20260503173451 | 54 | 76 | 2.0 | 7.0 | 0.00 | 0.00 | 0.00 | 36 | 1007.4 |
| 20260503172948 | 55 | 342 | 3.0 | 7.0 | 0.00 | 0.00 | 0.00 | 36 | 1007.3 |
| 20260503172446 | 53 | 86 | 3.0 | 6.0 | 0.00 | 0.00 | 0.00 | 35 | 1007.4 |
| 20260503171942 | 53 | 335 | 7.0 | 8.0 | 0.00 | 0.00 | 0.00 | 36 | 1007.5 |
| 20260503171439 | 52 | 341 | 6.0 | 7.0 | 0.00 | 0.00 | 0.00 | 40 | 1007.3 |
| 20260503170937 | 51 | 8 | 1.0 | 7.0 | 0.00 | 0.00 | 0.00 | 38 | 1007.5 |
| 20260503170432 | 51 | 6 | 5.0 | 9.0 | 0.00 | 0.00 | 0.00 | 38 | 1007.3 |
| 20260503150825 | 53 | 339 | 5.0 | 10.0 | 0.00 | 0.00 | 0.00 | 40 | 1006.9 |
| 20260503150321 | 53 | 354 | 5.0 | 7.0 | 0.00 | 0.00 | 0.00 | 43 | 1007.1 |